"2009-09-11 00:00:00",1230049,2.537,19.99,3.553,0.237,22.01,110.0101,24.92,25.96,16.09,0,111.1,13.14,25.76,342.0
"2009-09-11 00:00:30",1230050,2.549,26.33,2.557,0.273,22.09,110.0101,24.92,25.95,15.83,0,111.1,13.14,25.76,348.3
"2009-09-11 00:01:00",1230051,2.857,30.79,4.117,0.37,22.12,110.0101,24.92,25.95,15.53,0,111.1,13.14,25.76,352.8
"2009-09-11 00:01:30",1230052,2.375,29.99,2.057,0.245,22.1,110.0101,24.92,25.94,15.44,0,111.1,13.14,25.76,352.0
"2009-09-11 00:02:00",1230053,2.4,28.29,3.516,0.192,22.09,110.0104,24.92,25.94,15.72,0,111.1,13.14,25.76,350.3
"2009-09-11 00:02:30",1230054,2.248,26.67,3.189,0.245,22.06,110.0101,24.92,25.94,15.7,0,111.1,13.14,25.76,348.7
"2009-09-11 00:03:00",1230055,2.717,32.53,4.803,0.453,22.08,110.0104,24.92,25.94,15.7,0,111.1,13.14,25.76,354.5
"2009-09-11 00:03:30",1230056,2.455,26.72,3.11,0.195,22.14,110.0129,24.93,25.94,15.72,0,111.1,13.14,25.77,348.7
"2009-09-11 00:04:00",1230057,2.295,26.57,2.871,0.2,22.13,110.0084,24.92,25.93,15.63,0,111.1,13.14,25.75,348.6
"2009-09-11 00:04:30",1230058,2.863,22.28,2.521,0.233,22.13,110.0051,24.91,25.92,15.75,0,111.1,13.14,25.75,344.3
"2009-09-11 00:05:00",1230059,2.707,29.09,4.804,0.311,22.13,109.9952,24.88,25.91,15.74,0,111.1,13.14,25.72,351.1
"2009-09-11 00:05:30",1230060,2.426,20.71,4.137,0.43,22.05,109.9956,24.88,25.92,16.14,0,111.1,13.14,25.72,342.7
"2009-09-11 00:06:00",1230061,2.493,33.77,3.605,0.37,22.16,109.9901,24.87,25.91,15.99,0,111.1,13.14,25.71,355.8
"2009-09-11 00:06:30",1230062,2.649,27.54,5.426,0.439,22.14,109.993,24.88,25.91,15.63,0,111.1,13.14,25.72,349.5
"2009-09-11 00:07:00",1230063,2.017,17.19,6.528,0.569,22.06,109.9946,24.88,25.9,16,0,111.1,13.14,25.72,339.2
"2009-09-11 00:07:30",1230064,1.781,23.67,6.215,0.357,22.1,109.9956,24.88,25.9,16.08,0,111.1,13.14,25.72,345.7
"2009-09-11 00:08:00",1230065,2.099,26.73,5.27,0.37,22.13,110.0005,24.9,25.87,15.94,0,111.1,13.14,25.73,348.7
"2009-09-11 00:08:30",1230066,2.421,32.16,6.674,0.402,22.18,110.0005,24.9,25.88,15.86,0,111.1,13.14,25.73,354.2
"2009-09-11 00:09:00",1230067,2.336,30.02,5.1,0.218,22.11,110.002,24.9,25.86,15.79,0,111.1,13.14,25.74,352.0
"2009-09-11 00:09:30",1230068,2.772,39.34,1.832,0.144,22.25,110.0008,24.9,25.87,15.32,0,111.1,13.14,25.74,1.3
"2009-09-11 00:10:00",1230069,2.435,39.37,3.095,0.26,22.18,109.9938,24.88,25.86,14.82,0,111.1,13.14,25.72,1.4
"2009-09-11 00:10:30",1230070,1.692,34,5.128,0.284,22.14,109.9828,24.85,25.87,15.46,0,111.1,13.15,25.69,356.0
"2009-09-11 00:11:00",1230071,1.734,27.34,5.809,0.224,22.11,109.9727,24.82,25.85,15.58,0,111.1,13.15,25.66,349.3
"2009-09-11 00:11:30",1230072,1.709,27.33,4.151,0.251,22.09,109.9705,24.82,25.84,15.73,0,111.1,13.15,25.66,349.3
"2009-09-11 00:12:00",1230073,1.929,25.26,3.916,0.319,22.02,109.9708,24.82,25.83,15.99,0,111.1,13.15,25.66,347.3
"2009-09-11 00:12:30",1230074,1.556,18.31,3.841,0.271,22.04,109.9711,24.82,25.82,16.18,0,111.1,13.15,25.66,340.3
"2009-09-11 00:13:00",1230075,1.743,19.12,6.538,0.538,21.96,109.9742,24.83,25.82,16.38,0,111.1,13.15,25.67,341.1
"2009-09-11 00:13:30",1230076,1.714,29.69,4.593,0.187,22.04,109.9724,24.82,25.8,16.87,0,111.1,13.15,25.66,351.7
"2009-09-11 00:14:00",1230077,1.583,17.38,14.25,0.469,21.97,109.9733,24.83,25.81,16.46,0,111.1,13.15,25.66,339.4
"2009-09-11 00:14:30",1230078,1.768,17.92,8.81,0.434,21.98,109.9754,24.83,25.81,17.13,0,111.1,13.15,25.67,339.9
"2009-09-11 00:15:30",1230079,1.473,23.48,14.48,0.518,21.99,109.9672,24.81,25.79,16.39,0,111.1,13.15,25.65,345.5
"2009-09-11 00:16:00",1230080,2.48,24.66,8.18,0.46,22.01,109.9594,24.79,25.79,16.5,0,111.1,13.15,25.63,346.7
"2009-09-11 00:16:30",1230081,1.888,19.32,11.48,0.708,21.95,109.9558,24.78,25.78,16.62,0,111.1,13.15,25.62,341.3
"2009-09-11 00:17:00",1230082,1.267,9.66,11.47,0.625,21.92,109.9511,24.77,25.77,17.13,0,111.1,13.15,25.61,331.7
"2009-09-11 00:17:30",1230083,2.537,35.78,5.09,0.399,22.08,109.9466,24.76,25.78,16.81,0,111.1,13.14,25.60,357.8
"2009-09-11 00:18:00",1230084,2.222,37.22,3.141,0.207,22.15,109.946,24.76,25.77,16.24,0,111.1,13.14,25.59,359.2
"2009-09-11 00:18:30",1230085,1.539,34.78,4.155,0.218,22.06,109.946,24.76,25.76,16.42,0,111.1,13.14,25.59,356.8
"2009-09-11 00:19:00",1230086,1.842,36.36,5.599,0.348,22.14,109.946,24.76,25.76,16.4,0,111.1,13.14,25.59,358.4
"2009-09-11 00:19:30",1230087,2.213,36.33,2.528,0.197,22.05,109.946,24.76,25.73,16.29,0,111.1,13.14,25.59,358.3
"2009-09-11 00:20:00",1230088,2.675,32.92,3.032,0.421,22.06,109.9458,24.76,25.74,16.32,0,111.1,13.14,25.59,354.9
"2009-09-11 00:20:30",1230089,2.694,41.86,2.677,0.173,22.1,109.9421,24.75,25.72,16.32,0,111.1,13.14,25.58,3.9
"2009-09-11 00:21:00",1230090,2.036,40.53,3.41,0.197,21.99,109.932,24.72,25.72,16.48,0,111.1,13.14,25.56,2.5
"2009-09-11 00:21:30",1230091,2.309,43.5,3.771,0.196,22,109.9244,24.7,25.71,16.81,0,111.1,13.14,25.54,5.5
"2009-09-11 00:22:00",1230092,2.128,36.31,5.63,0.205,22.01,109.9188,24.69,25.71,16.65,0,111.1,13.14,25.52,358.3
"2009-09-11 00:22:30",1230093,1.791,28.25,3.335,0.207,22.01,109.914,24.67,25.7,16.45,0,111.1,13.15,25.51,350.2
"2009-09-11 00:23:00",1230094,1.991,30.89,4.525,0.413,22,109.9123,24.67,25.69,16.67,0,111.1,13.15,25.51,352.9
"2009-09-11 00:23:30",1230095,1.944,26.82,4.906,0.259,22,109.9123,24.67,25.69,16.75,0,111.1,13.15,25.51,348.8
"2009-09-11 00:24:00",1230096,1.118,12.68,9.77,0.388,21.99,109.9123,24.67,25.68,16.8,0,111.1,13.15,25.51,334.7
"2009-09-11 00:24:30",1230097,0.984,19.58,10,0.316,21.94,109.9123,24.67,25.68,16.84,0,111.1,13.15,25.51,341.6
"2009-09-11 00:25:00",1230098,1.269,7.842,7.777,0.509,21.96,109.9123,24.67,25.67,16.93,0,111.1,13.15,25.51,329.8
"2009-09-11 00:25:30",1230099,2.059,32.98,4.599,0.219,22.06,109.9123,24.67,25.67,16.68,0,111.1,13.15,25.51,355.0
"2009-09-11 00:26:00",1230100,2.003,37.08,3.185,0.228,22.06,109.9123,24.67,25.67,16.45,0,111.1,13.15,25.51,359.1
"2009-09-11 00:26:30",1230101,1.682,30.13,5.889,0.235,21.92,109.9123,24.67,25.67,16.64,0,111.1,13.15,25.51,352.1
"2009-09-11 00:27:00",1230102,1.486,33.98,5.007,0.221,21.94,109.9123,24.67,25.68,16.69,0,111.1,13.15,25.51,356.0
"2009-09-11 00:27:30",1230103,1.457,31.08,9.69,0.294,21.95,109.9123,24.67,25.66,16.67,0,111.1,13.15,25.51,353.1
"2009-09-11 00:28:00",1230104,1.26,11.94,10.39,0.294,21.86,109.9123,24.67,25.66,16.73,0,111.1,13.15,25.51,333.9
"2009-09-11 00:28:30",1230105,1.063,8.97,10.18,0.33,21.79,109.9123,24.67,25.66,17.12,0,111.1,13.15,25.51,331.0
"2009-09-11 00:29:00",1230106,1.631,21.86,3.063,0.186,21.75,109.9123,24.67,25.66,17.36,0,111.1,13.15,25.51,343.9
"2009-09-11 00:29:30",1230107,1.266,18.56,8.05,0.22,21.71,109.9123,24.67,25.65,17.22,0,111.1,13.15,25.51,340.6
"2009-09-11 00:30:00",1230108,1.203,15.98,7.419,0.314,21.64,109.9123,24.67,25.67,17.21,0,111.1,13.15,25.51,338.0
"2009-09-11 00:30:30",1230109,1.334,15.56,4.891,0.339,21.52,109.9123,24.67,25.66,17.24,0,111.1,13.15,25.51,337.6
"2009-09-11 00:31:00",1230110,1.028,9.29,7.665,0.26,21.48,109.9123,24.67,25.66,17.49,0,111.1,13.15,25.51,331.3
"2009-09-11 00:31:30",1230111,0.844,4.868,8.18,0.36,21.51,109.9123,24.67,25.66,17.68,0,111.1,13.15,25.51,326.9
"2009-09-11 00:32:00",1230112,1.017,4.559,8.6,0.304,21.44,109.9123,24.67,25.66,17.69,0,111.1,13.15,25.51,326.6
"2009-09-11 00:32:30",1230113,1.172,357.5,11.15,0.355,21.47,109.9123,24.67,25.68,17.79,0,111.1,13.15,25.51,319.5
"2009-09-11 00:33:00",1230114,0.744,3.067,15.64,0.331,21.49,109.9132,24.67,25.67,17.87,0,111.1,13.15,25.51,325.1
"2009-09-11 00:33:30",1230115,0.795,19.37,9.83,0.214,21.52,109.9199,24.69,25.69,17.85,0,111.1,13.15,25.53,341.4
"2009-09-11 00:34:00",1230116,1.041,12.65,9.6,0.381,21.66,109.9269,24.71,25.69,17.73,0,111.1,13.15,25.54,334.6
"2009-09-11 00:34:30",1230117,0.8,357.3,13.1,0.56,21.72,109.9396,24.74,25.71,17.51,0,111.1,13.15,25.58,319.3
"2009-09-11 00:35:00",1230118,1.302,357.9,12.04,0.468,21.76,109.9452,24.75,25.71,17.74,0,111.1,13.15,25.59,319.9
"2009-09-11 00:35:30",1230119,1,11.14,6.601,0.245,21.73,109.946,24.76,25.72,17.81,0,111,13.15,25.59,333.1
"2009-09-11 00:36:00",1230120,1.685,355.4,7.496,0.445,21.8,109.946,24.76,25.73,17.9,0,111.1,13.14,25.59,317.4
"2009-09-11 00:36:30",1230121,1.296,0.174,7.475,0.29,21.85,109.946,24.76,25.73,17.93,0,111.1,13.14,25.59,322.2
"2009-09-11 00:37:00",1230122,1.652,356.1,4.081,0.303,21.89,109.946,24.76,25.75,17.82,0,111.1,13.14,25.59,318.1
"2009-09-11 00:37:30",1230123,1.539,356.7,5.186,0.346,21.9,109.946,24.76,25.74,17.81,0,111.1,13.14,25.59,318.7
"2009-09-11 00:38:00",1230124,1.311,357.8,3.375,0.204,21.93,109.9463,24.76,25.76,17.75,0,111.1,13.14,25.59,319.8
"2009-09-11 00:38:30",1230125,1.606,0.295,5.73,0.198,21.93,109.9463,24.76,25.76,17.7,0,111.1,13.14,25.59,322.3
"2009-09-11 00:39:00",1230126,1.935,354.9,2.358,0.217,21.95,109.9466,24.76,25.77,17.85,0,111.1,13.14,25.60,316.9
"2009-09-11 00:39:30",1230127,1.978,356,3.299,0.243,21.98,109.9469,24.76,25.78,17.79,0,111.1,13.15,25.60,318.0
"2009-09-11 00:40:00",1230128,2.483,349.8,2.315,0.195,21.94,109.946,24.76,25.78,17.75,0,111.1,13.15,25.59,311.8
"2009-09-11 00:40:30",1230129,2.365,349.1,3.487,0.257,21.96,109.946,24.76,25.78,17.78,0,111.1,13.15,25.59,311.1
"2009-09-11 00:41:00",1230130,2.032,352,3.861,0.351,21.98,109.946,24.76,25.77,17.8,0,111.1,13.15,25.59,314.0
"2009-09-11 00:41:30",1230131,1.85,353.9,3.849,0.371,22,109.946,24.76,25.78,17.68,0,111.1,13.15,25.59,315.9
"2009-09-11 00:42:00",1230132,1.332,358.4,5.906,0.296,21.97,109.946,24.76,25.78,17.66,0,111.1,13.15,25.59,320.4
"2009-09-11 00:42:30",1230133,1.401,359.6,3.445,0.211,21.97,109.946,24.76,25.76,17.63,0,111.1,13.15,25.59,321.6
"2009-09-11 00:43:00",1230134,1.37,1.901,3.66,0.202,21.94,109.946,24.76,25.77,17.57,0,111.1,13.15,25.59,323.9
"2009-09-11 00:43:30",1230135,1.32,5.018,4.697,0.279,21.91,109.946,24.76,25.76,17.5,0,111.1,13.15,25.59,327.0
"2009-09-11 00:44:00",1230136,1.209,1.203,5.32,0.188,21.9,109.946,24.76,25.77,17.52,0,111.1,13.15,25.59,323.2
"2009-09-11 00:44:30",1230137,1.45,358.9,5.118,0.231,21.91,109.946,24.76,25.76,17.56,0,111.1,13.15,25.59,320.9
"2009-09-11 00:45:00",1230138,1.657,357.7,5.173,0.308,21.89,109.946,24.76,25.74,17.76,0,111.1,13.15,25.59,319.7
"2009-09-11 00:45:30",1230139,1.556,4.922,7.97,0.223,21.87,109.9435,24.75,25.74,17.69,0,111.1,13.15,25.59,326.9
"2009-09-11 00:46:00",1230140,1.336,3.849,5.542,0.32,21.84,109.9354,24.73,25.75,17.61,0,111.1,13.15,25.57,325.8
"2009-09-11 00:46:30",1230141,1.185,1.703,5.749,0.156,21.83,109.9326,24.72,25.74,17.6,0,111.1,13.15,25.56,323.7
"2009-09-11 00:47:00",1230142,1.336,15.81,4.761,0.322,21.83,109.9247,24.7,25.73,17.62,0,111.1,13.15,25.54,337.8
"2009-09-11 00:47:30",1230143,1.61,18.55,2.141,0.193,21.88,109.9233,24.7,25.73,17.63,0,111.1,13.15,25.54,340.5
"2009-09-11 00:48:00",1230144,1.339,8.93,4.911,0.245,21.89,109.9222,24.69,25.73,17.63,0,111.1,13.15,25.53,330.9
"2009-09-11 00:48:30",1230145,1.479,3.86,3.44,0.177,21.92,109.9214,24.69,25.73,17.7,0,111.1,13.15,25.53,325.9
"2009-09-11 00:49:00",1230146,1.631,4.769,3.369,0.203,21.95,109.9177,24.68,25.72,17.74,0,111.1,13.15,25.52,326.8
"2009-09-11 00:49:30",1230147,1.549,5.274,3.791,0.258,22.01,109.9149,24.68,25.71,17.74,0,111.1,13.15,25.51,327.3
"2009-09-11 00:50:00",1230148,1.484,2.454,3.775,0.278,22.02,109.9126,24.67,25.71,17.77,0,111.1,13.15,25.51,324.5
"2009-09-11 00:50:30",1230149,1.202,359.7,3.6,0.126,22.04,109.9123,24.67,25.72,17.8,0,111.1,13.15,25.51,321.7
"2009-09-11 00:51:00",1230150,1.368,4.91,3.418,0.169,22.03,109.9123,24.67,25.72,17.85,0,111.1,13.15,25.51,326.9
"2009-09-11 00:51:30",1230151,1.248,6.805,4.481,0.408,22.07,109.9123,24.67,25.71,17.81,0,111.1,13.15,25.51,328.8
"2009-09-11 00:52:00",1230152,1.289,8.13,4.363,0.248,22.1,109.9126,24.67,25.7,17.79,0,111.1,13.15,25.51,330.1
"2009-09-11 00:52:30",1230153,0.995,5.95,4.297,0.175,22.08,109.9142,24.67,25.69,17.81,0,111.1,13.15,25.51,328.0
"2009-09-11 00:53:00",1230154,0.928,359.6,4.201,0.169,22.05,109.9125,24.67,25.68,17.88,0,111.1,13.15,25.51,321.6
"2009-09-11 00:53:30",1230155,0.997,1,6.065,0.237,22.1,109.9037,24.65,25.68,17.84,0,111.1,13.15,25.49,323.0
"2009-09-11 00:54:00",1230156,1.082,357.9,4.499,0.181,22.13,109.8999,24.64,25.67,17.82,0,111.1,13.15,25.48,319.9
"2009-09-11 00:54:30",1230157,1.231,356.1,3.65,0.251,22.13,109.8808,24.59,25.67,17.9,0,111.1,13.15,25.43,318.1
"2009-09-11 00:55:00",1230158,1.504,353.8,3.415,0.227,22.13,109.8814,24.59,25.64,17.94,0,111.1,13.15,25.43,315.8
"2009-09-11 00:55:30",1230159,1.685,351,3.629,0.194,22.11,109.8805,24.59,25.64,17.96,0,111,13.15,25.43,313.0
"2009-09-11 00:56:00",1230160,0.968,356.4,9.18,0.351,22.14,109.882,24.59,25.63,17.99,0,111.1,13.15,25.43,318.4
"2009-09-11 00:56:30",1230161,0.921,1.792,13.39,0.387,22.22,109.8757,24.58,25.62,17.73,0,111.1,13.15,25.41,323.8
"2009-09-11 00:57:00",1230162,1.082,2.644,5.261,0.16,22.23,109.8603,24.54,25.6,17.41,0,111,13.15,25.37,324.6
"2009-09-11 00:57:30",1230163,0.713,359.1,11.05,0.377,22.22,109.8495,24.51,25.59,17.36,0,111,13.16,25.35,321.1
"2009-09-11 00:58:00",1230164,1.183,352.8,6.681,0.411,22.26,109.8502,24.51,25.57,17.27,0,111,13.16,25.35,314.8
"2009-09-11 00:58:30",1230165,0.812,358.4,13.67,0.432,22.24,109.8498,24.51,25.57,17.22,0,111,13.16,25.35,320.4
"2009-09-11 00:59:00",1230166,0.9,356.9,8.48,0.275,22.24,109.8526,24.52,25.55,17.19,0,111,13.16,25.35,318.9
"2009-09-11 00:59:30",1230167,1.399,346.1,4.942,0.145,22.26,109.8542,24.52,25.53,17.14,0,111,13.16,25.36,308.1
"2009-09-11 01:00:00",1230168,0.68,1.831,15.99,0.237,22.23,109.8412,24.49,25.52,17.19,0,111,13.16,25.32,323.8
"2009-09-11 01:00:30",1230169,1.306,354.6,5.856,0.324,22.27,109.8296,24.46,25.49,17.16,0,111,13.16,25.29,316.6
"2009-09-11 01:01:00",1230170,1.425,354.6,2.942,0.204,22.21,109.8288,24.45,25.5,17.64,0,111,13.16,25.29,316.6
"2009-09-11 01:01:30",1230171,1.178,357.9,3.113,0.192,22.19,109.8303,24.46,25.48,17.92,0,111,13.16,25.30,319.9
"2009-09-11 01:02:00",1230172,1.026,359.9,4.249,0.13,22.18,109.8325,24.46,25.47,18.07,0,111,13.16,25.30,321.9
"2009-09-11 01:02:30",1230173,1.071,359.8,4.666,0.154,22.15,109.8214,24.44,25.45,18.15,0,111,13.16,25.27,321.8
"2009-09-11 01:03:00",1230174,1.311,357.5,3.285,0.139,22.17,109.8094,24.4,25.45,18.22,0,111,13.16,25.24,319.5
"2009-09-11 01:03:30",1230175,1.256,356.8,3.671,0.191,22.16,109.8031,24.39,25.43,18.27,0,111,13.16,25.23,318.8
"2009-09-11 01:04:00",1230176,1.249,357.1,2.783,0.187,22.17,109.804,24.39,25.42,18.31,0,111,13.16,25.23,319.1
"2009-09-11 01:04:30",1230177,1.187,358,3.484,0.155,22.14,109.8049,24.39,25.4,18.32,0,111,13.16,25.23,320.0
"2009-09-11 01:05:00",1230178,1.329,357.4,3.655,0.172,22.17,109.801,24.38,25.38,18.33,0,111,13.16,25.22,319.4
"2009-09-11 01:05:30",1230179,1.568,353.5,2.956,0.198,22.19,109.7814,24.33,25.35,18.37,0,111,13.16,25.17,315.5
"2009-09-11 01:06:00",1230180,1.816,352.1,2.35,0.207,22.18,109.7726,24.31,25.35,18.35,0,111,13.16,25.15,314.1
"2009-09-11 01:06:30",1230181,1.982,350.7,2.165,0.147,22.2,109.7715,24.31,25.35,18.36,0,111,13.16,25.14,312.7
"2009-09-11 01:07:00",1230182,1.662,353,2.929,0.161,22.17,109.7721,24.31,25.32,18.35,0,111,13.16,25.15,315.0
"2009-09-11 01:07:30",1230183,1.664,353.5,2.571,0.155,22.17,109.7731,24.31,25.32,18.35,0,111,13.16,25.15,315.5
"2009-09-11 01:08:00",1230184,1.792,352.6,2.156,0.197,22.18,109.7636,24.29,25.3,18.36,0,111,13.16,25.12,314.6
"2009-09-11 01:08:30",1230185,1.848,351.1,2.151,0.221,22.18,109.7514,24.26,25.29,18.39,0,111,13.16,25.09,313.1
"2009-09-11 01:09:00",1230186,1.848,351.7,3.339,0.25,22.18,109.7454,24.24,25.28,18.37,0,111,13.16,25.08,313.7
"2009-09-11 01:09:30",1230187,1.905,348.7,2.06,0.13,22.22,109.7452,24.24,25.26,18.41,0,111,13.16,25.08,310.7
"2009-09-11 01:10:00",1230188,1.89,350.9,2.281,0.17,22.24,109.7455,24.24,25.25,18.4,0,111,13.16,25.08,312.9
"2009-09-11 01:10:30",1230189,1.926,349.1,1.844,0.075,22.26,109.7461,24.24,25.24,18.38,0,111,13.16,25.08,311.1
"2009-09-11 01:11:00",1230190,1.822,349.5,3.278,0.228,22.26,109.7451,24.24,25.23,18.35,0,111,13.16,25.08,311.5
"2009-09-11 01:11:30",1230191,1.306,355.9,3.596,0.265,22.26,109.7338,24.21,25.22,17.97,0,111,13.16,25.05,317.9
"2009-09-11 01:12:00",1230192,1.343,356.8,5.695,0.194,22.28,109.7246,24.19,25.22,17.85,0,111,13.16,25.02,318.8
"2009-09-11 01:12:30",1230193,1.575,351.8,2.51,0.215,22.28,109.7192,24.17,25.2,18.03,0,111,13.16,25.01,313.8
"2009-09-11 01:13:00",1230194,1.657,350.5,2.955,0.211,22.28,109.7136,24.16,25.2,18.33,0,111,13.16,24.99,312.5
"2009-09-11 01:13:30",1230195,0.953,358.5,6.456,0.304,22.17,109.7133,24.16,25.18,18.34,0,111,13.16,24.99,320.5
"2009-09-11 01:14:00",1230196,0.797,6.843,5.744,0.168,22.25,109.7133,24.16,25.18,18.07,0,111,13.17,24.99,328.8
"2009-09-11 01:14:30",1230197,1.223,356.7,7.081,0.321,22.28,109.7133,24.16,25.16,17.82,0,111,13.17,24.99,318.7
"2009-09-11 01:15:00",1230198,1.397,352.9,4.493,0.192,22.27,109.713,24.16,25.15,18.09,0,111,13.17,24.99,314.9
"2009-09-11 01:15:30",1230199,1.414,352.5,3.378,0.159,22.27,109.7088,24.15,25.16,18.22,0,111,13.17,24.98,314.5
"2009-09-11 01:16:00",1230200,1.144,355.1,3.164,0.178,22.21,109.6956,24.11,25.13,18.33,0,111,13.17,24.95,317.1
"2009-09-11 01:16:30",1230201,1.499,352.7,2.443,0.177,22.25,109.688,24.09,25.13,18.42,0,111,13.17,24.93,314.7
"2009-09-11 01:17:00",1230202,1.732,351.9,2.562,0.15,22.26,109.6824,24.08,25.13,18.47,0,111,13.17,24.91,313.9
"2009-09-11 01:17:30",1230203,1.836,350.2,1.543,0.103,22.26,109.6799,24.07,25.12,18.48,0,111,13.17,24.91,312.2
"2009-09-11 01:18:00",1230204,1.842,350.9,2.519,0.141,22.24,109.6796,24.07,25.11,18.56,0,111,13.17,24.91,312.9
"2009-09-11 01:18:30",1230205,1.908,350.1,1.393,0.101,22.26,109.6796,24.07,25.1,18.59,0,111,13.17,24.91,312.1
"2009-09-11 01:19:00",1230206,1.782,351,2.352,0.195,22.24,109.6796,24.07,25.09,18.59,0,111,13.17,24.91,313.0
"2009-09-11 01:19:30",1230207,1.855,349.9,1.49,0.099,22.27,109.679,24.07,25.08,18.58,0,111,13.17,24.91,311.9
"2009-09-11 01:20:00",1230208,1.906,349.4,1.211,0.107,22.24,109.6773,24.07,25.08,18.56,0,111,13.17,24.90,311.4
"2009-09-11 01:20:30",1230209,1.836,350.2,1.825,0.113,22.22,109.6695,24.05,25.07,18.57,0,111,13.17,24.88,312.2
"2009-09-11 01:21:00",1230210,1.763,351.4,2.502,0.161,22.2,109.663,24.03,25.07,18.62,0,111,13.17,24.86,313.4
"2009-09-11 01:21:30",1230211,1.668,351.6,2.151,0.159,22.2,109.6523,24,25.07,18.69,0,111,13.17,24.84,313.6
"2009-09-11 01:22:00",1230212,1.473,354.2,4.072,0.165,22.21,109.6461,23.99,25.05,18.64,0,111,13.17,24.82,316.2
"2009-09-11 01:22:30",1230213,1.468,354,2.963,0.196,22.18,109.6459,23.98,25.04,18.68,0,111,13.17,24.82,316.0
"2009-09-11 01:23:00",1230214,1.329,353.8,2.929,0.196,22.21,109.6459,23.98,25.03,18.65,0,111,13.17,24.82,315.8
"2009-09-11 01:23:30",1230215,1.258,353.8,3.214,0.197,22.22,109.6459,23.98,25.03,18.63,0,111,13.17,24.82,315.8
"2009-09-11 01:24:00",1230216,1.152,356.3,3.615,0.199,22.18,109.6462,23.99,25.03,18.6,0,111,13.17,24.82,318.3
"2009-09-11 01:24:30",1230217,1.079,357.4,3.481,0.148,22.17,109.6462,23.99,25.02,18.63,0,111,13.17,24.82,319.4
"2009-09-11 01:25:00",1230218,1.174,357.1,4.767,0.139,22.17,109.6465,23.99,25.02,18.67,0,111,13.18,24.82,319.1
"2009-09-11 01:25:30",1230219,1.025,0.399,4.215,0.112,22.2,109.6432,23.98,25,18.7,0,111,13.17,24.81,322.4
"2009-09-11 01:26:00",1230220,1.074,358.3,2.717,0.145,22.16,109.6364,23.96,24.99,18.76,0,111,13.17,24.80,320.3
"2009-09-11 01:26:30",1230221,1.139,358.5,3.084,0.141,22.19,109.626,23.93,24.99,18.74,0,111,13.17,24.77,320.5
"2009-09-11 01:27:00",1230222,1.048,358.9,3.565,0.13,22.21,109.6248,23.93,24.99,18.74,0,111,13.17,24.77,320.9
"2009-09-11 01:27:30",1230223,1.16,357.1,2.458,0.153,22.22,109.6218,23.92,24.98,18.79,0,111,13.17,24.76,319.1
"2009-09-11 01:28:00",1230224,1.189,355.5,2.601,0.14,22.21,109.622,23.92,24.99,18.81,0,111,13.17,24.76,317.5
"2009-09-11 01:28:30",1230225,1.15,355.6,3.784,0.148,22.23,109.6235,23.93,24.96,18.75,0,111,13.17,24.76,317.6
"2009-09-11 01:29:00",1230226,1.188,355.2,3.958,0.141,22.24,109.622,23.92,24.97,18.74,0,111,13.17,24.76,317.2
"2009-09-11 01:29:30",1230227,1.216,354.6,3.385,0.157,22.25,109.6263,23.93,24.94,18.7,0,111,13.17,24.77,316.6
"2009-09-11 01:30:00",1230228,1.157,355.8,3.484,0.158,22.25,109.6334,23.95,24.95,18.72,0,111,13.17,24.79,317.8
"2009-09-11 01:30:30",1230229,1.278,353.6,2.637,0.113,22.22,109.6335,23.95,24.93,18.8,0,111,13.17,24.79,315.6
"2009-09-11 01:31:00",1230230,1.155,355.5,3.526,0.174,22.2,109.6307,23.95,24.94,18.87,0,111,13.18,24.78,317.5
"2009-09-11 01:31:30",1230231,1.17,354.9,3.591,0.155,22.22,109.6271,23.94,24.93,18.89,0,111,13.18,24.77,316.9
"2009-09-11 01:32:00",1230232,1.219,354.9,2.987,0.174,22.23,109.6196,23.92,24.92,18.89,0,111,13.18,24.75,316.9
"2009-09-11 01:32:30",1230233,1.211,353.6,3.655,0.186,22.25,109.6129,23.9,24.91,18.9,0,111,13.18,24.74,315.6
"2009-09-11 01:33:00",1230234,1.037,357,3.437,0.136,22.22,109.6061,23.88,24.91,18.89,0,111,13.18,24.72,319.0
"2009-09-11 01:33:30",1230235,0.991,356.5,3.251,0.193,22.21,109.6061,23.88,24.89,18.89,0,111,13.18,24.72,318.5
"2009-09-11 01:34:00",1230236,0.963,357,3.311,0.158,22.21,109.6061,23.88,24.9,18.9,0,111,13.18,24.72,319.0
"2009-09-11 01:34:30",1230237,1.119,355.3,3.67,0.093,22.26,109.6061,23.88,24.9,18.87,0,111,13.18,24.72,317.3
"2009-09-11 01:35:00",1230238,1.25,353.5,2.835,0.138,22.23,109.6083,23.89,24.88,18.87,0,111,13.19,24.72,315.5
"2009-09-11 01:35:30",1230239,1.228,353.7,2.952,0.13,22.27,109.6083,23.89,24.87,18.91,0,111,13.18,24.72,315.7
"2009-09-11 01:36:00",1230240,1.14,354.8,3.497,0.146,22.24,109.6075,23.89,24.86,18.91,0,111,13.19,24.72,316.8
"2009-09-11 01:36:30",1230241,1.097,353.9,3.658,0.163,22.2,109.604,23.88,24.86,18.92,0,111,13.19,24.71,315.9
"2009-09-11 01:37:00",1230242,1.197,352.6,3.251,0.133,22.24,109.5943,23.85,24.85,18.93,0,111,13.19,24.69,314.6
"2009-09-11 01:37:30",1230243,1.362,350.5,1.598,0.095,22.23,109.5866,23.83,24.85,18.95,0,111,13.19,24.67,312.5
"2009-09-11 01:38:00",1230244,1.125,353.6,2.573,0.169,22.19,109.5862,23.83,24.84,18.98,0,111,13.19,24.67,315.6
"2009-09-11 01:38:30",1230245,1.132,353.6,3.056,0.13,22.22,109.5827,23.82,24.84,18.97,0,111,13.19,24.66,315.6
"2009-09-11 01:39:00",1230246,1.044,353.8,3.88,0.154,22.19,109.581,23.82,24.83,18.96,0,111,13.19,24.65,315.8
"2009-09-11 01:39:30",1230247,0.901,355.4,5.052,0.153,22.19,109.5816,23.82,24.83,18.97,0,111,13.19,24.65,317.4
"2009-09-11 01:40:00",1230248,0.679,356.1,5.799,0.13,22.13,109.5816,23.82,24.82,18.97,0,111,13.19,24.65,318.1
"2009-09-11 01:40:30",1230249,0.283,3.026,10.94,0.108,22.08,109.5816,23.82,24.81,18.98,0,111,13.19,24.65,325.0
"2009-09-11 01:41:00",1230250,0.093,8.75,12.82,0.098,22.09,109.5816,23.82,24.8,18.99,0,111,13.19,24.65,330.8
"2009-09-11 01:41:30",1230251,0.095,2.568,21.69,0.139,22.18,109.5816,23.82,24.8,19,0,111,13.19,24.65,324.6
"2009-09-11 01:42:00",1230252,0.108,15.25,15.45,0.122,22.23,109.5816,23.82,24.81,19.01,0,111,13.19,24.65,337.2
"2009-09-11 01:42:30",1230253,0.11,20.65,11.18,0.125,22.21,109.5814,23.82,24.79,19.05,0,111,13.18,24.65,342.6
"2009-09-11 01:43:00",1230254,0.052,17.25,14.52,0.089,22.18,109.5814,23.82,24.78,19.16,0,111,13.18,24.65,339.2
"2009-09-11 01:43:30",1230255,0.081,10.92,14.96,0.072,22.14,109.5816,23.82,24.78,19.22,0,111,13.18,24.65,332.9
"2009-09-11 01:44:00",1230256,0.162,8.68,13.23,0.133,22.1,109.5816,23.82,24.78,19.38,0,111,13.18,24.65,330.7
"2009-09-11 01:44:30",1230257,0.319,2.316,8.83,0.126,22.08,109.5816,23.82,24.77,19.56,0,111,13.18,24.65,324.3
"2009-09-11 01:45:00",1230258,0.446,0.977,8.62,0.142,21.99,109.5954,23.86,24.78,19.8,0,111,13.18,24.69,323.0
"2009-09-11 01:45:30",1230259,1.14,344.6,8.01,0.263,21.88,109.6154,23.91,24.79,19.9,0,111,13.18,24.74,306.6
"2009-09-11 01:46:00",1230260,1.469,310.3,18.46,0.202,21.74,109.6173,23.91,24.83,20.24,0,111,13.18,24.75,272.3
"2009-09-11 01:46:30",1230261,3.244,211.3,23.34,0.952,21.32,109.6157,23.91,24.82,20.93,0,111,13.18,24.74,173.3
"2009-09-11 01:47:00",1230262,3.518,201.2,10.88,0.342,21.3,109.6154,23.91,24.83,21.22,0,111,13.18,24.74,163.2
"2009-09-11 01:47:30",1230263,3.533,176.8,13.7,0.728,21.44,109.6148,23.9,24.84,21.19,0,111,13.19,24.74,138.8
"2009-09-11 01:48:00",1230264,4.015,172,5.19,0.437,21.48,109.5906,23.84,24.83,21.22,0,111,13.19,24.68,134.0